Flag for Egypt Weather past 2 weeks in Al Jizah, Egypt

Now
70 °F

Clear.


Feels Like: 70 °F
Forecast: 61 / 84 °F
Wind: 12 mph from Northeast

Location: Cairo Airport


UV Index: 7 (High)

Visibility: 4 mi


Pressure: 29.83 "Hg

Humidity: 60%

Dew point: 55 °F

Location of Al JizahLocation

Historic Weather in Al Jizah

°F

Al Jizah temperature yesterday

Maximum temperature yesterday: 95 °F (at 2:30 PM)
Minimum temperature yesterday: 68 °F (at 12:00 AM)
Average temperature yesterday: 82 °F

Past Weeks' High & Low Weather Summary

 TemperatureHumidityPressure
High95 °F (Apr 18, 2:30 PM)94% (Apr 17, 2:30 AM)30.12 "Hg (Apr 17, 2:30 AM)
Low55 °F (Apr 5, 5:30 AM)6% (Apr 6, 3:30 PM)29.74 "Hg (Apr 15, 3:00 AM)
Average72 °F46%29.95 "Hg
* Reported Apr 4 6:00 AM — Apr 19 6:00 AM, Al Jizah, Weather by CustomWeather, © 2014

Note: Actual official high and low records may vary slightly from our data, if they occured in-between our weather recording intervals... More about our weather records

Advertising

Historic Weather Conditions — Data for Previous 24 hours

 ConditionsComfort  
Time TempWeatherWind HumidityBarometerVisibility
6:00 AM
Apr 19
68 °FFog.10 mph73%29.86 "Hg2 mi
5:30 AM66 °FFog.10 mph83%29.86 "Hg2 mi
5:00 AM64 °FFog.8 mph88%29.86 "Hg2 mi
4:30 AM64 °FFog.10 mph83%29.89 "Hg2 mi
4:00 AM64 °FFog.10 mph83%29.86 "Hg2 mi
3:30 AM64 °FFog.9 mph83%29.89 "Hg2 mi
3:00 AM66 °FFog.9 mph78%29.89 "Hg2 mi
2:30 AM66 °FFog.6 mph78%29.89 "Hg2 mi
2:00 AM66 °FFog.6 mph78%29.89 "Hg2 mi
1:30 AM66 °FHaze.9 mph78%29.89 "Hg2 mi
1:00 AM66 °FHaze.9 mph78%29.89 "Hg2 mi
12:30 AM68 °FHaze.8 mph73%29.92 "Hg2 mi
12:00 AM68 °FClear.8 mph73%29.92 "Hg4 mi
11:30 PM
Apr 18
68 °FClear.7 mph73%29.92 "Hg10 mi
11:00 PM70 °FClear.9 mph64%29.92 "Hg10 mi
10:30 PM70 °FClear.9 mph60%29.92 "Hg10 mi
10:00 PM72 °FClear.9 mph61%29.89 "Hg10 mi
9:30 PM72 °FClear.12 mph57%29.89 "Hg10 mi
9:00 PM73 °FClear.12 mph53%29.89 "Hg10 mi
8:30 PM73 °FClear.12 mph65%29.86 "Hg10 mi
8:00 PM75 °FClear.12 mph61%29.86 "Hg10 mi
7:30 PM77 °FPassing clouds.14 mph57%29.83 "HgN/A
7:00 PM81 °FPassing clouds.14 mph51%29.83 "HgN/A
6:30 PM93 °FPassing clouds.6 mph11%29.80 "HgN/A
6:00 PM93 °FScattered clouds.8 mph11%29.80 "HgN/A
5:30 PM95 °FSunny.7 mph11%29.80 "Hg10 mi
5:00 PM95 °FSunny.6 mph11%29.80 "Hg10 mi
4:30 PM95 °FSunny.9 mph11%29.80 "Hg10 mi
4:00 PM95 °FSunny.15 mph11%29.80 "Hg10 mi
3:30 PM95 °FSunny.15 mph10%29.80 "Hg10 mi
3:00 PM95 °FSunny.15 mph10%29.83 "Hg10 mi
2:30 PM95 °FSunny.15 mph10%29.83 "Hg10 mi
2:00 PM93 °FSunny.15 mph12%29.83 "Hg10 mi
1:30 PM93 °FSunny.14 mph14%29.83 "Hg10 mi
1:00 PM93 °FSunny.13 mph14%29.86 "Hg10 mi
12:30 PM91 °FSunny.13 mph15%29.86 "Hg10 mi
12:00 PM90 °FSunny.9 mph16%29.86 "Hg10 mi
11:30 AM90 °FSunny.9 mph16%29.86 "Hg10 mi
11:00 AM88 °FSunny.13 mph16%29.89 "Hg10 mi
10:30 AM88 °FSunny.9 mph16%29.89 "Hg10 mi
10:00 AM86 °FSunny.13 mph17%29.89 "Hg10 mi
9:30 AM86 °FSunny.12 mph18%29.89 "Hg10 mi
9:00 AM84 °FSunny.14 mph19%29.89 "Hg10 mi
8:00 AM79 °FSunny.13 mph23%29.86 "Hg10 mi
7:00 AM75 °FSunny.12 mph27%29.86 "Hg10 mi
Weather by CustomWeather, © 2014

See weather overview